Regional Weather Roundup
Issued by NWS

Home | Current Version | Previous Version | Graphics & Text | Print | Product List | Glossary On
Versions: 1 2 3 4 5 6 7 8 9 10 11 12 13 14 15 16 17 18 19 20 21 22 23 24 25 26 27 28 29 30 31 32 33 34 35 36 37 38 39 40 41 42 43 44 45 46 47 48 49 50
000
ASUS43 KBIS 262310
RWRND
NORTH DAKOTA REGIONAL WEATHER ROUNDUP
NATIONAL WEATHER SERVICE EASTERN NORTH DAKOTA/GRAND FORKS ND
600 PM CDT FRI MAY 26 2017

  NOTE: "FAIR" INDICATES FEW OR NO CLOUDS BELOW 12,000 FEET WITH NO
  SIGNIFICANT WEATHER AND/OR OBSTRUCTIONS TO VISIBILITY.

NDZ001>003-009>011-017-270000-
...NORTHWEST NORTH DAKOTA...

CITY           SKY/WX    TMP DP  RH WIND       PRES   REMARKS
WILLISTON      PTSUNNY   67  33  28 NW13G23   29.77S
MINOT          FAIR      68  36  30 NW17      29.73R
MINOT AFB      FAIR      66  36  33 W20G25    29.71S
$$

NDZ018>021-031>035-040>046-270000-
...SOUTHWEST NORTH DAKOTA...

CITY           SKY/WX    TMP DP  RH WIND       PRES   REMARKS
BISMARCK       CLOUDY    67  39  35 NW13G23   29.80R
DICKINSON      PTSUNNY   64  30  27 NW18G28   29.80S
GARRISON         N/A     65  34  31 NW20      29.76S
HETTINGER      FAIR      67  34  29 NW15      29.85F
$$

NDZ004>008-012>016-024-026-027-054-270000-
...NORTHEAST NORTH DAKOTA...

CITY           SKY/WX    TMP DP  RH WIND       PRES   REMARKS
GRAND FORKS    FAIR      71  46  40 W16G24    29.70R
GRAND FORKS AF FAIR      66  45  47 W15       29.72R
DEVILS LAKE    PTSUNNY   64  41  42 W22G30    29.73R
$$

NDZ022-023-025-028>030-036>039-047>053-270000-
...SOUTHEAST NORTH DAKOTA...

CITY           SKY/WX    TMP DP  RH WIND       PRES   REMARKS
JAMESTOWN      CLOUDY    63  43  48 NW17      29.77R
FARGO          FAIR      69  43  38 W22       29.74R
WAHPETON       FAIR      68  39  34 W17G25    29.76S
$$




USA.gov is the U.S. government's official web portal to all federal, state and local government web resources and services.